Tracking 20041 objects as of 22-Nov-2019
Live streaming from Space Station
objects crossing your sky now

DELTA 1 DEB

Track DELTA 1 DEB now!
10-day predictions


NORAD ID: 12170
Int'l Code: 1978-026K
Perigee: 803.7 km
Apogee: 869.2 km
Inclination: 98.9 °
Period: 101.5 minutes
Semi major axis: 7207 km
RCS: 0.045 m2 (small)
Launch date: March 5, 1978
Source: United States (US)
Launch site: AIR FORCE WESTERN TEST RANGE (AFWTR)

Note: This is SATELLITE DEBRIS
aabbcc
Your satellite tracking list
Your tracking list is empty




NASA's NSSDC Master Catalog

Two Line Element Set (TLE):
1 12170U 78026K   19326.54232986  .00000095  00000-0  66205-4 0  9991
2 12170  98.8741 307.2530 0045439  60.1322  66.9052 14.18834811  2839
Source of the keplerian elements: AFSPC